FW7988 Weather Reports


time (UTC)temp
C
wind
direction
speed
KPH
gust
KPH
rain 1hr
cm
rain 24hr
cm
rain mn
cm
humidity
%
barometer
mb
20260510094932 20 173 6.4 11.3 0.00 0.00 0.00 92
20260510094427 20 176 6.4 11.3 0.00 0.00 0.00 93
20260510093923 20 210 8.0 12.9 0.00 0.00 0.00 92
20260510093418 20 190 4.8 11.3 0.00 0.00 0.00 92
20260510092915 20 179 8.0 14.5 0.00 0.00 0.00 91
20260510092413 20 197 9.7 11.3 0.00 0.00 0.00 91
20260510091907 20 203 11.3 16.1 0.00 0.00 0.00 91
20260510091404 20 183 4.8 11.3 0.00 0.00 0.00 90
20260510090900 20 180 9.7 11.3 0.00 0.00 0.00 90
20260510090357 20 195 8.0 11.3 0.00 0.00 0.00 90
20260510085853 21 166 6.4 11.3 0.00 0.00 0.00 89
20260510085348 20 190 6.4 11.3 0.00 0.00 0.00 90
20260510084844 20 184 6.4 9.7 0.00 0.00 0.00 90
20260510084342 20 165 6.4 11.3 0.00 0.00 0.00 90
20260510083838 20 192 4.8 9.7 0.00 0.00 0.00 89
20260510083334 21 185 6.4 9.7 0.00 0.00 0.00 89
20260510082830 21 182 8.0 11.3 0.00 0.00 0.00 89
20260510082327 21 186 8.0 12.9 0.00 0.00 0.00 89
20260510081826 21 187 9.7 12.9 0.00 0.00 0.00 88
20260510081322 21 170 8.0 12.9 0.00 0.00 0.00 88
20260510080818 21 169 8.0 11.3 0.00 0.00 0.00 88
20260510080314 21 150 8.0 11.3 0.00 0.00 0.00 87
20260510075811 21 186 9.7 16.1 0.00 0.00 0.00 87
20260510075308 21 191 11.3 14.5 0.00 0.00 0.00 87
20260510074805 21 190 6.4 16.1 0.00 0.00 0.00 87
20260510074302 21 194 8.0 14.5 0.00 0.00 0.00 87
20260510073758 21 172 8.0 11.3 0.00 0.00 0.00 86
20260510073254 21 174 8.0 12.9 0.00 0.00 0.00 86
20260510072749 21 186 6.4 12.9 0.00 0.00 0.00 86
20260510072246 21 135 3.2 9.7 0.00 0.00 0.00 86
20260510071742 21 151 8.0 9.7 0.00 0.00 0.00 85
20260510071239 21 174 8.0 11.3 0.00 0.00 0.00 85
20260510070738 21 165 4.8 8.0 0.00 0.00 0.00 85
20260510070234 21 169 6.4 9.7 0.00 0.00 0.00 85
20260510065729 21 174 6.4 9.7 0.00 0.00 0.00 85
20260510065226 21 158 4.8 8.0 0.00 0.00 0.00 85
20260510064722 21 205 6.4 11.3 0.00 0.00 0.00 85
20260510064220 21 143 6.4 9.7 0.00 0.00 0.00 85
20260510063717 21 178 4.8 9.7 0.00 0.00 0.00 84
20260510063213 22 181 4.8 11.3 0.00 0.00 0.00 84
20260510062709 22 179 3.2 8.0 0.00 0.00 0.00 83
20260510062206 22 165 8.0 11.3 0.00 0.00 0.00 83
20260510061701 22 159 11.3 14.5 0.00 0.00 0.00 82
20260510061159 22 157 4.8 12.9 0.00 0.00 0.00 82
20260510060655 22 199 9.7 12.9 0.00 0.00 0.00 81
20260510060152 22 169 4.8 14.5 0.00 0.00 0.00 80
20260510055648 22 179 6.4 11.3 0.00 0.00 0.00 80
20260510055145 23 165 3.2 11.3 0.00 0.00 0.00 79
20260510054641 23 185 6.4 12.9 0.00 0.00 0.00 78
20260510054137 23 171 6.4 9.7 0.00 0.00 0.00 78
20260510053636 23 160 8.0 11.3 0.00 0.00 0.00 77
20260510053133 23 130 9.7 11.3 0.00 0.00 0.00 77
20260510052629 23 165 4.8 8.0 0.00 0.00 0.00 77
20260510052126 23 143 8.0 12.9 0.00 0.00 0.00 77
20260510051621 23 192 4.8 14.5 0.00 0.00 0.00 77
20260510051118 23 156 8.0 11.3 0.00 0.00 0.00 77
20260510050615 23 168 6.4 12.9 0.00 0.00 0.00 78
20260510050113 23 160 6.4 9.7 0.00 0.00 0.00 79
20260510045609 23 170 6.4 9.7 0.00 0.03 0.03 80
20260510045105 23 168 4.8 8.0 0.00 0.03 0.03 80
20260510044602 23 183 4.8 4.8 0.00 0.03 0.03 81
20260510044059 23 142 4.8 4.8 0.00 0.03 0.03 81
20260510043554 23 181 1.6 4.8 0.00 0.03 0.03 81
20260510043050 23 203 1.6 1.6 0.00 0.03 0.03 81
20260510042544 23 208 0.0 1.6 0.00 0.03 0.03 81
20260510042040 23 180 3.2 4.8 0.00 0.03 0.03 81
20260510041537 23 193 1.6 3.2 0.00 0.03 0.03 81
20260510041035 23 127 1.6 4.8 0.00 0.03 0.03 82
20260510040531 23 147 3.2 3.2 0.00 0.03 0.03 82
20260510040027 23 153 1.6 4.8 0.00 0.03 0.03 81
20260510035523 23 142 0.0 3.2 0.00 0.03 0.03 81
20260510035023 24 174 4.8 8.0 0.00 0.03 0.03 80
20260510034522 24 176 3.2 3.2 0.00 0.03 0.03 80
20260510034018 24 193 3.2 4.8 0.00 0.03 0.03 79
20260510033514 24 182 4.8 8.0 0.00 0.03 0.03 79
20260510033012 25 198 3.2 4.8 0.00 0.03 0.03 79
20260510032508 25 179 0.0 3.2 0.00 0.03 0.03 78
20260510032009 25 165 4.8 9.7 0.00 0.03 0.03 78
20260510031504 25 151 1.6 4.8 0.00 0.03 0.03 78
20260510031000 25 170 0.0 3.2 0.00 0.03 0.03 77
20260510030456 25 140 4.8 11.3 0.00 0.03 0.03 77
20260510025953 25 181 3.2 4.8 0.00 0.03 0.03 76
20260510025450 25 126 6.4 12.9 0.00 0.03 0.03 75
20260510024948 26 142 4.8 9.7 0.00 0.03 0.03 74
20260510024444 26 155 6.4 9.7 0.00 0.03 0.03 73
20260510023940 26 114 8.0 11.3 0.00 0.03 0.03 73
20260510023437 26 127 8.0 9.7 0.00 0.03 0.03 72
20260510022934 26 161 8.0 12.9 0.00 0.03 0.03 71
20260510022433 25 137 8.0 11.3 0.00 0.03 0.03 71
20260510021932 25 123 3.2 9.7 0.00 0.03 0.03 70
20260510021430 25 154 0.0 0.0 0.00 0.03 0.03 69
20260510020926 25 195 0.0 0.0 0.00 0.03 0.03 68
20260510020421 25 160 1.6 3.2 0.00 0.03 0.03 67
20260510015917 25 155 0.0 0.0 0.00 0.03 0.03 67
20260510015413 25 166 0.0 0.0 0.00 0.03 0.03 66
20260510014908 26 99 0.0 0.0 0.00 0.03 0.03 65
20260510014406 26 161 0.0 0.0 0.00 0.03 0.03 64
20260510013903 26 156 0.0 1.6 0.00 0.03 0.03 62
20260510013357 27 124 3.2 8.0 0.00 0.03 0.03 61
20260510012852 27 128 4.8 9.7 0.00 0.03 0.03 60
20260510012348 27 136 6.4 8.0 0.00 0.03 0.03 60
20260510011843 27 169 6.4 8.0 0.00 0.03 0.03 59
20260510011338 27 145 8.0 9.7 0.00 0.03 0.03 58
20260510010835 27 114 6.4 9.7 0.00 0.03 0.03 57
20260510010332 27 154 8.0 12.9 0.00 0.03 0.03 57
20260510005828 28 128 8.0 9.7 0.00 0.03 0.03 56
20260510005325 28 134 11.3 12.9 0.00 0.03 0.03 56
20260510004823 28 154 6.4 11.3 0.00 0.03 0.03 54
20260510004320 28 142 12.9 16.1 0.00 0.03 0.03 52
20260510003818 28 140 12.9 14.5 0.00 0.03 0.03 51
20260510003314 29 130 9.7 12.9 0.00 0.03 0.03 49
20260510002813 29 140 9.7 11.3 0.00 0.03 0.03 48
20260510002311 30 125 8.0 11.3 0.00 0.03 0.03 48
20260510001807 30 106 4.8 11.3 0.00 0.03 0.03 47
20260510001305 30 147 6.4 9.7 0.00 0.03 0.03 46
20260510000801 30 128 8.0 14.5 0.00 0.03 0.03 46
20260510000259 30 130 9.7 14.5 0.00 0.03 0.03 46
20260509235756 30 151 11.3 17.7 0.00 0.03 0.03 46
20260509235252 30 125 16.1 17.7 0.00 0.03 0.03 45
20260509234747 30 104 14.5 17.7 0.00 0.03 0.03 45
20260509234245 30 133 11.3 16.1 0.00 0.03 0.03 47
20260509233743 31 128 11.3 14.5 0.00 0.03 0.03 46
20260509233240 30 185 11.3 14.5 0.00 0.03 0.03 47
20260509232736 31 143 12.9 16.1 0.00 0.03 0.03 46
20260509232233 31 181 6.4 16.1 0.00 0.03 0.03 46
20260509231730 31 135 4.8 12.9 0.00 0.03 0.03 49
20260509231227 31 97 4.8 8.0 0.00 0.03 0.03 53
20260509230725 31 108 9.7 12.9 0.00 0.03 0.03 53
20260509230221 31 107 6.4 9.7 0.00 0.03 0.03 52
20260509225716 31 163 3.2 11.3 0.00 0.03 0.03 52
20260509225212 31 113 3.2 8.0 0.00 0.03 0.03 50
20260509224708 31 123 9.7 16.1 0.00 0.03 0.03 51
20260509224205 31 93 1.6 11.3 0.00 0.03 0.03 52
20260509223702 31 94 1.6 9.7 0.00 0.03 0.03 52
20260509223159 30 118 8.0 11.3 0.00 0.03 0.03 51
20260509222656 30 136 8.0 11.3 0.00 0.03 0.03 53
20260509222152 30 80 6.4 12.9 0.00 0.03 0.03 52
20260509221648 30 78 4.8 14.5 0.00 0.03 0.03 53
20260509221143 30 176 1.6 9.7 0.00 0.03 0.03 53
20260509220640 30 61 1.6 11.3 0.00 0.03 0.03 54
20260509220136 30 139 4.8 11.3 0.00 0.03 0.03 54
20260509215632 30 147 6.4 9.7 0.00 0.03 0.03 55
20260509215129 30 89 8.0 9.7 0.00 0.03 0.03 54
20260509214626 29 138 8.0 16.1 0.00 0.03 0.03 54
20260509214123 28 91 12.9 17.7 0.00 0.03 0.03 56
20260509213619 28 145 9.7 20.9 0.00 0.03 0.03 56
20260509213115 28 152 17.7 22.5 0.00 0.03 0.03 54
20260509212613 28 104 11.3 22.5 0.00 0.03 0.03 54
20260509212110 28 109 19.3 25.7 0.00 0.03 0.03 53
20260509211606 28 145 14.5 22.5 0.00 0.03 0.03 54
20260509211103 30 116 12.9 22.5 0.00 0.03 0.03 51
20260509210559 33 111 4.8 8.0 0.00 0.03 0.03 44
20260509210056 32 91 4.8 8.0 0.00 0.03 0.03 44
20260509205550 33 335 9.7 14.5 0.00 0.03 0.03 45
20260509205045 33 218 8.0 9.7 0.00 0.03 0.03 42
20260509204542 32 73 1.6 4.8 0.00 0.03 0.03 44
20260509204038 32 10 3.2 12.9 0.00 0.03 0.03 46
20260509203534 31 352 11.3 11.3 0.00 0.03 0.03 48
20260509203033 31 316 3.2 3.2 0.00 0.03 0.03 50
20260509202527 31 273 0.0 8.0 0.00 0.03 0.03 52
20260509202023 31 245 11.3 14.5 0.00 0.03 0.03 49
20260509201518 31 248 8.0 12.9 0.00 0.03 0.03 51
20260509201016 32 266 6.4 9.7 0.00 0.03 0.03 46
20260509200510 32 23 0.0 4.8 0.00 0.03 0.03 43
20260509200007 31 74 3.2 11.3 0.00 0.03 0.03 51
20260509195502 31 207 1.6 11.3 0.00 0.03 0.03 50
20260509195002 30 240 6.4 9.7 0.00 0.03 0.03 54
20260509194457 31 309 6.4 11.3 0.00 0.03 0.03 54
20260509193955 31 278 11.3 16.1 0.00 0.03 0.03 54
20260509193454 31 279 8.0 11.3 0.00 0.03 0.03 53
20260509192951 31 122 4.8 8.0 0.00 0.03 0.03 52
20260509192448 31 229 14.5 17.7 0.00 0.03 0.03 53
20260509191943 31 332 4.8 9.7 0.00 0.03 0.03 56
20260509191438 31 240 6.4 8.0 0.00 0.03 0.03 55
20260509190934 31 235 11.3 12.9 0.00 0.03 0.03 55
20260509190432 31 258 9.7 14.5 0.00 0.03 0.03 54
20260509185929 30 223 4.8 11.3 0.00 0.03 0.03 58
20260509185426 30 245 4.8 8.0 0.00 0.03 0.03 59
20260509184923 28 321 0.0 4.8 0.00 0.03 0.03 63
20260509184421 29 291 8.0 9.7 0.00 0.03 0.03 63
20260509183917 29 313 3.2 4.8 0.00 0.03 0.03 62
20260509183411 29 328 4.8 9.7 0.00 0.03 0.03 62
20260509182908 30 61 1.6 4.8 0.00 0.03 0.03 59
20260509182405 30 198 4.8 8.0 0.00 0.03 0.03 58
20260509181902 30 138 3.2 12.9 0.00 0.03 0.03 59
20260509181400 30 264 9.7 11.3 0.00 0.03 0.03 59
20260509180857 30 328 1.6 9.7 0.00 0.03 0.03 61
20260509180352 30 301 6.4 11.3 0.00 0.03 0.03 62
20260509175849 29 29 3.2 8.0 0.00 0.03 0.03 63
20260509175346 30 242 4.8 12.9 0.00 0.03 0.03 63
20260509174841 29 293 4.8 8.0 0.00 0.03 0.03 65
20260509174338 30 333 4.8 11.3 0.00 0.03 0.03 62
20260509173834 28 335 4.8 9.7 0.00 0.03 0.03 69
20260509173329 28 252 8.0 12.9 0.00 0.03 0.03 67
20260509172825 29 311 8.0 9.7 0.00 0.03 0.03 65
20260509172322 28 196 4.8 11.3 0.00 0.03 0.03 66
20260509171818 28 252 12.9 14.5 0.00 0.03 0.03 66
20260509171314 27 221 8.0 14.5 0.00 0.03 0.03 70
20260509170811 28 282 8.0 14.5 0.00 0.03 0.03 70
20260509170307 28 156 8.0 14.5 0.00 0.03 0.03 70
20260509165806 28 193 11.3 12.9 0.00 0.03 0.03 69
20260509165301 27 123 4.8 9.7 0.00 0.03 0.03 71
20260509164757 27 214 8.0 9.7 0.00 0.03 0.03 72
20260509164254 27 236 9.7 12.9 0.00 0.03 0.03 72
20260509163750 27 209 6.4 11.3 0.00 0.03 0.03 75
20260509163247 27 248 6.4 11.3 0.00 0.03 0.03 74
20260509162745 27 223 8.0 16.1 0.00 0.03 0.03 74
20260509162239 26 232 3.2 8.0 0.00 0.03 0.03 76
20260509161736 26 203 11.3 14.5 0.00 0.03 0.03 76
20260509161232 26 234 1.6 8.0 0.00 0.03 0.03 79
20260509160727 26 254 4.8 8.0 0.00 0.03 0.03 79
20260509160224 26 198 8.0 12.9 0.00 0.03 0.03 78
20260509155718 25 242 6.4 9.7 0.00 0.03 0.03 81
20260509155216 25 245 6.4 12.9 0.00 0.03 0.03 83
20260509154711 25 230 4.8 11.3 0.00 0.03 0.03 84
20260509154209 25 259 8.0 11.3 0.00 0.03 0.03 85
20260509153706 24 221 9.7 12.9 0.00 0.03 0.03 88
20260509153202 24 219 11.3 14.5 0.00 0.03 0.03 88
20260509152658 23 181 8.0 12.9 0.00 0.03 0.03 90
20260509152155 23 172 9.7 11.3 0.00 0.03 0.03 91
20260509151652 23 201 8.0 16.1 0.00 0.03 0.03 91
20260509151149 23 202 8.0 14.5 0.00 0.03 0.03 91
20260509150647 23 179 6.4 11.3 0.00 0.03 0.03 92
20260509150145 23 170 8.0 12.9 0.00 0.03 0.03 91
20260509145641 23 133 6.4 11.3 0.00 0.03 0.03 92
20260509145136 23 196 8.0 14.5 0.00 0.03 0.03 92
20260509144633 23 161 4.8 12.9 0.00 0.03 0.03 94
20260509144130 22 124 1.6 9.7 0.00 0.03 0.03 95
20260509143627 22 125 8.0 11.3 0.00 0.03 0.03 97
20260509143125 22 171 6.4 11.3 0.00 0.03 0.03 97
20260509142620 22 179 14.5 16.1 0.00 0.03 0.03 98
20260509142117 23 166 11.3 14.5 0.00 0.03 0.03 98
20260509141613 22 174 9.7 16.1 0.00 0.03 0.03 98
20260509141109 22 132 8.0 11.3 0.00 0.03 0.03 98
20260509140606 22 185 8.0 11.3 0.00 0.03 0.03 98
20260509140104 22 193 8.0 11.3 0.00 0.03 0.03 98
20260509135601 21 180 8.0 9.7 0.00 0.03 0.03 99
20260509135059 22 141 6.4 8.0 0.00 0.03 0.03 99
20260509134555 21 109 0.0 0.0 0.00 0.03 0.03 99
20260509134053 21 56 0.0 1.6 0.00 0.03 0.03 99
20260509133550 21 11 0.0 3.2 0.00 0.03 0.03 99
20260509133047 22 358 4.8 4.8 0.00 0.03 0.03 99
20260509132546 21 311 0.0 3.2 0.00 0.03 0.03 99
20260509132044 21 327 6.4 8.0 0.00 0.03 0.03 99
20260509131539 21 315 4.8 8.0 0.00 0.03 0.03 99
20260509131036 21 17 3.2 4.8 0.00 0.03 0.03 99
20260509130532 21 333 8.0 9.7 0.00 0.03 0.03 99
20260509130029 21 351 4.8 4.8 0.00 0.03 0.03 99
20260509125525 21 328 3.2 4.8 0.00 0.03 0.03 99
20260509125022 21 322 4.8 4.8 0.00 0.03 0.03 99
20260509124519 21 357 8.0 8.0 0.00 0.03 0.03 99
20260509124016 21 60 1.6 3.2 0.00 0.03 0.03 99
20260509123514 21 352 0.0 1.6 0.00 0.03 0.03 99
20260509123010 21 19 0.0 0.0 0.00 0.03 0.03 99
20260509122506 21 18 0.0 0.0 0.00 0.03 0.03 99
20260509122003 21 22 0.0 1.6 0.00 0.03 0.03 98
20260509121500 21 30 0.0 1.6 0.00 0.03 0.03 98
20260509120958 21 11 0.0 0.0 0.00 0.03 0.03 98
20260509120455 21 26 0.0 0.0 0.00 0.03 0.03 98
20260509115954 21 26 0.0 3.2 0.00 0.03 0.03 98
20260509115450 21 326 3.2 3.2 0.00 0.03 0.03 98
20260509114948 21 8 0.0 0.0 0.00 0.03 0.03 98
20260509114446 21 12 0.0 0.0 0.00 0.03 0.03 98
20260509113945 21 19 1.6 8.0 0.00 0.03 0.03 98
20260509113442 21 6 4.8 8.0 0.00 0.03 0.03 98
20260509112939 21 356 3.2 4.8 0.00 0.03 0.03 98
20260509112436 21 44 0.0 0.0 0.00 0.03 0.03 98
20260509111933 21 67 0.0 1.6 0.00 0.03 0.03 98
20260509111431 21 66 3.2 4.8 0.00 0.03 0.03 98
20260509110928 21 31 3.2 8.0 0.00 0.03 0.03 98
20260509110423 21 55 1.6 4.8 0.00 0.03 0.03 98
20260509105922 21 59 3.2 8.0 0.00 0.03 0.03 98
20260509105420 21 50 4.8 8.0 0.00 0.03 0.03 98
20260509104917 21 44 0.0 8.0 0.00 0.03 0.03 98
20260509104413 21 27 4.8 8.0 0.00 0.03 0.03 98
20260509103911 21 37 4.8 8.0 0.00 0.03 0.03 98
20260509103408 21 26 3.2 4.8 0.00 0.03 0.03 98
20260509102907 21 13 4.8 4.8 0.00 0.03 0.03 98
20260509102404 21 24 3.2 4.8 0.00 0.03 0.03 98
20260509101859 21 33 3.2 3.2 0.00 0.03 0.03 98
20260509101355 21 70 1.6 1.6 0.00 0.03 0.03 98
20260509100854 21 85 1.6 3.2 0.00 0.03 0.03 98
20260509100350 21 75 0.0 0.0 0.00 0.03 0.03 98
20260509095847 21 71 1.6 3.2 0.00 0.03 0.03 98